Regional Weather Roundup
Issued by NWS

Home | Current Version | Previous Version | Text Only | Print | Product List | Glossary On
Versions: 1 2 3 4 5 6 7 8 9 10 11 12 13 14 15 16 17 18 19 20 21 22 23 24 25 26 27 28 29 30 31 32 33 34 35 36 37 38 39 40 41 42 43 44 45 46 47 48 49 50
000
ASUS43 KDTX 220901
RWRMI
MICHIGAN HOURLY REGIONAL WEATHER ROUNDUP
NATIONAL WEATHER SERVICE DETROIT/PONTIAC MI
500 AM EDT WED OCT 22 2014

NOTE: "FAIR" INDICATES FEW OR NO CLOUDS BELOW 12,000 FEET WITH NO
SIGNIFICANT WEATHER AND/OR OBSTRUCTION TO VISIBILITY.

MIZ047>049-052>055-059>063-066>070-074>076-081>083-221000-
SOUTHEAST LOWER MICHIGAN

CITY           SKY/WX    TMP DP  RH WIND       PRES   REMARKS
ADRIAN         CLOUDY    43  37  79 N12       30.25R
ALMA           CLOUDY    39  35  84 N5        30.31R
ANN ARBOR      CLOUDY    44  36  73 N9        30.25R
BAD AXE        CLOUDY    43  39  86 N5        30.28R
CARO           CLOUDY    43  38  84 CALM      30.28R
DETROIT CITY   CLOUDY    48  39  71 N10       30.23R
DETROIT        CLOUDY    46  39  76 NW10      30.24R
FLINT          CLOUDY    45  37  73 N9        30.28R
GROSSE ILE     CLOUDY    46  39  76 N9        30.22R
HILLSDALE      CLOUDY    41  38  88 N6        30.25R
HOWELL         CLOUDY    40  36  84 N3        30.26R

CITY           SKY/WX    TMP DP  RH WIND       PRES   REMARKS
JACKSON        CLOUDY    38  35  89 N5        30.27R WCI  34
LAMBERTVILLE   CLOUDY    45  37  76 N9        30.24R
LANSING        CLOUDY    39  34  82 N5        30.29R
LAPEER         CLOUDY    43  37  79 N8        30.26R
MASON          CLOUDY    37  34  89 CALM      30.28R
MONROE         CLOUDY    45  39  81 N7        30.22R
MT. CLEMENS    CLOUDY    46  41  82 N10       30.21R
PONTIAC        CLOUDY    43  37  79 N8        30.24R
PORT HOPE        N/A     46  39  76 NE15      30.26S
PORT HURON     CLOUDY    45  41  87 N7        30.23R
TRI CITIES     CLOUDY    43  36  76 N8        30.30R
TROY           CLOUDY    46  39  77 N9        30.25R
SAGINAW HB     CLOUDY    45  37  76 NE6       30.29R
$$
MIZ043>046-050>051-056>058-064>065-071>073-077>080-221000-
SOUTHWEST LOWER MICHIGAN

CITY           SKY/WX    TMP DP  RH WIND       PRES   REMARKS
BATTLE CREEK   CLEAR     34  31  88 N5        30.29R WCI  30
BENTON HARBOR  CLEAR     32  31  96 CALM      30.30R
BIG RAPIDS     CLEAR     29  29 100 CALM      30.31R
COLDWATER      MOCLDY    37  35  94 CALM      30.28R
FREMONT        FAIR      33  31  90 CALM      30.32R
HOLLAND        CLEAR     35  31  85 E5        30.31R WCI  31
GRAND RAPIDS   CLEAR     33  30  88 N3        30.31R
IONIA          CLOUDY    35  32  90 N5        30.29S WCI  31
KALAMAZOO      CLEAR     33  31  92 N3        30.30R
LUDINGTON      CLEAR     27  26  96 CALM      30.34R FOG
MARSHALL       PTCLDY    32  31  94 CALM      30.28R
MOUNT PLEASANT CLOUDY    38  33  82 N5        30.31R WCI  34
MUSKEGON       CLEAR     32  28  85 NE6       30.32R WCI  26
SOUTH HAVEN    CLEAR     35  34  94 E3        30.30R
$$
MIZ016>042-221000-
NORTHERN LOWER MICHIGAN

CITY           SKY/WX    TMP DP  RH WIND       PRES   REMARKS
ALPENA         CLOUDY    40  33  76 N3        30.33R
BEAVER ISLAND  CLEAR     33  32  97 CALM      30.36R
BELLAIRE       CLEAR     27  26  96 CALM      30.37R
CADILLAC       CLEAR     23  22  97 CALM      30.30R
CHARLEVOIX     CLEAR     32  31  96 SE3       30.39R
FRANKFORT      CLEAR     28  26  91 CALM      30.35R
GAYLORD        CLOUDY    32  28  85 CALM      30.32R
GRAYLING       CLOUDY    32  31  98 CALM      30.33R
HARBOR SPRINGS PTCLDY    30  28  93 CALM      30.35R
HOUGHTON LAKE  CLOUDY    33  30  88 CALM      30.32S
MANISTEE       CLEAR     27  25  93 CALM      30.35R
OSCODA         CLOUDY    44  37  77 NE7       30.29S
PELLSTON       PTCLDY    24  23  96 CALM      30.36R
ROGERS CITY    CLOUDY    39  34  81 NE3       30.35S
TRAVERSE CITY  CLEAR     28  24  85 CALM      30.34R
$$
MIZ007>008-015-221000-
EASTERN UPPER MICHIGAN

CITY           SKY/WX    TMP DP  RH WIND       PRES   REMARKS
KINROSS        CLEAR     28  27  93 CALM      30.37R
MACKINAC ISLAN MOCLDY    38  32  78 E3        30.35R
NEWBERRY       CLEAR     28  27  95 CALM      30.36R
S. S. MARIE    CLEAR     29  25  85 CALM      30.36R
MUNISING         N/A     32  27  81 SW3       30.34S
$$
MIZ004>006-011>014-085-221000-
CENTRAL UPPER MICHIGAN

CITY           SKY/WX    TMP DP  RH WIND       PRES   REMARKS
MANISTIQUE     PTCLDY    28  28  99 N3        30.35R
ESCANABA       PTCLDY    27  25  93 NW3       30.34S
MENOMINEE      CLEAR     30  27  86 NW3       30.33S
SAWYER-GWINN   PTCLDY    23  21  93 CALM      30.32R
$$
MIZ001>003-009>011-084-221000-
WESTERN UPPER MICHIGAN

CITY           SKY/WX    TMP DP  RH WIND       PRES   REMARKS
IRON MOUNTAIN  MOCLDY    24  21  88 CALM      30.31F
HOUGHTON       PTCLDY    30  28  92 S3        30.29S
COPPER HARBOR    N/A     40  34  79 SW12      30.30F WCI  33
IRONWOOD       CLEAR     37  30  75 S3        30.23S
$$

ABBREVIATIONS USED IN REMARKS
   TC - TEMPERATURE IN CELSIUS
  WCI - WIND CHILL INDEX
   HX - HEAT INDEX
  VSB - VISIBILITY




USA.gov is the U.S. government's official web portal to all federal, state and local government web resources and services.